STARLINK-2091 (47678 NORAD) Tracking and Keplerian Element Data

This shows tracking and keplerian element data for the satellite.

Feedback or suggestion? Click here.




ElementValue
Catalog47678
NameSTARLINK-2091
Epoch Orbit183
Epoch Day56.91667824
Epoch Year2021
RAAN53.2869
Inclination53.0491
Eccentricity0.0001242
Argument of Perigee91.4343
Mean Anonmoly179.9633
Mean Motion15.85992536
Decay Rate0.00148545
L11 47678U 21012BL 21056.91667824 .00148545 00000-0 58362-3 0 9999
L22 47678 53.0491 53.2869 0001242 91.4343 179.9633 15.85992536 1835

Live tracking and technical data element details for STARLINK-2091 (NORAD 47678). STARLINK-2091 can be tracked NOW for your location showing map with azimuth and elevation plus other details from your city location.

Track the satellite on the map from your city or location and see movement details for azimuth, elevation, latitude, longitude, range, height, and movement on the map or in text.







IsCatalogInMostPopularTable: catalog: 47678, numindb: 1
Update: records affected: 1



GetName: 47678 STARLINK-2091

Hit Count: updated at: Fri, 26 Feb 2021 09:18:15 GMT